Hourly Data Report for May 30, 2021

FISHER BRANCH (AUT)
MANITOBA
Current Station Operator: ECCC - MSC

51°05'00.100" N
97°33'16.200" W
253.00 m
50309J6
71442
WSZ

Download Data

Hourly Data (May 2021)
Hourly Data Report for May 30, 2021
TIME
LST
Temp Definition
°C
Dew Point Definition
°C
Rel Hum Definition
%
Precip. Amount Definition
mm

Wind Dir Definition
10's deg

Wind Spd Definition
km/h
Visibility Definition
km
Stn Press Definition
kPa
Hmdx Definition


Wind Chill Definition


Weather Definition


00:00 14.5 4.9 53 0.0 20 11   98.19     LegendNANA
01:00 13.5 4.2 53 0.0 22 8   98.19     LegendNANA
02:00 8.4 2.3 66 0.0 23 4   98.22     LegendNANA
03:00 8.7 3.0 67 0.0 34 7   98.28     LegendNANA
04:00 8.5 3.3 70 0.0 35 6   98.29     LegendNANA
05:00 7.3 3.3 76 0.0   0   98.29     LegendNANA
06:00 10.7 4.7 66 0.0 35 10   98.37     LegendNANA
07:00 12.1 5.2 62 0.0 33 11   98.45     LegendNANA
08:00 14.3 5.6 56 0.0 35 14   98.49     LegendNANA
09:00 15.2 4.3 48 0.0 35 17   98.51     LegendNANA
10:00 15.7 5.0 49 0.0 35 15   98.53     LegendNANA
11:00 16.1 4.9 47 0.0 35 18   98.57     LegendNANA
12:00 16.8 5.3 47 0.0 34 16   98.62     LegendNANA
13:00 16.7 5.5 47 0.0 35 19   98.64     LegendNANA
14:00 17.8 5.8 45 0.0 35 17   98.65     LegendNANA
15:00 16.7 5.4 47 0.0 35 17   98.64     LegendNANA
16:00 15.8 5.6 51 0.0 34 21   98.68     LegendNANA
17:00 14.9 5.7 54 0.0 36 21   98.74     LegendNANA
18:00 13.8 5.5 57 0.0 35 19   98.82     LegendNANA
19:00 12.4 5.0 61 0.0 34 17   98.89     LegendNANA
20:00 10.2 5.0 70 0.0 35 15   98.92     LegendNANA
21:00 8.7 4.6 76 0.0 36 8   98.99     LegendNANA
22:00 7.2 4.6 83 0.0 34 5   99.01     LegendNANA
23:00 4.5 3.1 91 0.0 29 4   99.01     LegendNANA

Notes on Data Quality.

Legend

  • E = Estimated
  • M = Missing
  • NA = Not Available*
  • [empty] = Indicates an unobserved value
Date modified: